Veribest, TX

12:04 AM CDT on September 29, 2016 (GMT -0500)
San Angelo Regional-Mathis

Weather History for KSJT - September, 2013

Change the Weather History Date:

Sunday, September 22, 2013

  Actual Average Record
Temperature  
Mean Temperature 68 °F 74 °F  
Max Temperature 82 °F 86 °F 101 °F (1926)
Min Temperature 54 °F 61 °F 36 °F (1913)
Degree Days  
Heating Degree Days 0 0  
Month to date heating degree days 0 0  
Since 1 July heating degree days 0 0  
Cooling Degree Days 3 9  
Month to date cooling degree days 317 266  
Year to date cooling degree days 2643 2302  
Growing Degree Days 18 (Base 50)    
Moisture  
Dew Point 52 °F    
Average Humidity 64    
Maximum Humidity 100    
Minimum Humidity 28    
Precipitation  
Precipitation 0.00 in 0.08 in 1.52 in (1990)
Month to date precipitation 3.69 1.86  
Year to date precipitation 15.45 15.93  
Sea Level Pressure  
Sea Level Pressure 29.86 in    
Wind  
Wind Speed 5 mph (SE)    
Max Wind Speed 12 mph    
Max Gust Speed 15 mph    
Visibility 10 miles    
Events      
T = Trace of Precipitation, MM = Missing Value Source: NWS Daily Summary

Daily Weather History Graph

Daily Weather History Graph

Search for Another Location

Airport or City:

Trip Planner

Search our weather history database for the weather conditions in past years. The results will help you decide how hot, cold, wet, or windy it might be!

Date:

Astronomy

Sep. 22, 2013 Rise Set
Actual Time 7:30 AM CDT 7:38 PM CDT
Civil Twilight 7:06 AM CDT 8:02 PM CDT
Nautical Twilight 6:37 AM CDT 8:30 PM CDT
Astronomical Twilight 6:09 AM CDT 8:59 PM CDT
Moon 9:45 PM CDT (9/22) 10:37 AM CDT (9/22)
Length of Visible Light 12h 56m
Length of Day
12h 07m
Waning Gibbous, 88% of the Moon is Illuminated
Sep 22
Waning Gibbous
Sep 26
Last Quarter
Oct 4
New
Oct 11
First Quarter
Oct 18
Full

Hourly Weather History & Observations

Time (CDT) Temp. Dew Point Humidity Pressure Visibility Wind Dir Wind Speed Gust Speed Precip Events Conditions
12:51 AM 61.0 °F 57.0 °F 87% 29.92 in 10.0 mi SSW 3.5 mph - N/A   Clear
1:51 AM 59.0 °F 57.0 °F 93% 29.92 in 10.0 mi South 4.6 mph - N/A   Clear
2:51 AM 57.9 °F 55.9 °F 93% 29.91 in 10.0 mi SW 3.5 mph - N/A   Clear
3:51 AM 57.0 °F 55.0 °F 93% 29.90 in 10.0 mi Calm Calm - N/A   Clear
4:51 AM 55.9 °F 54.0 °F 93% 29.89 in 10.0 mi SSW 4.6 mph - N/A   Clear
5:51 AM 55.0 °F 54.0 °F 96% 29.89 in 10.0 mi South 3.5 mph - N/A   Clear
6:51 AM 54.0 °F 53.1 °F 97% 29.90 in 10.0 mi SSW 4.6 mph - N/A   Clear
7:51 AM 54.0 °F 53.1 °F 97% 29.91 in 10.0 mi SSW 3.5 mph - N/A   Clear
8:51 AM 60.1 °F 55.9 °F 86% 29.92 in 10.0 mi Calm Calm - N/A   Clear
9:51 AM 66.0 °F 55.9 °F 70% 29.93 in 10.0 mi Calm Calm - N/A   Clear
10:51 AM 72.0 °F 54.0 °F 53% 29.93 in 10.0 mi SE 3.5 mph - N/A   Clear
11:51 AM 75.0 °F 51.1 °F 43% 29.91 in 10.0 mi Calm Calm - N/A   Clear
12:51 PM 78.1 °F 54.0 °F 43% 29.89 in 10.0 mi Variable 3.5 mph - N/A   Clear
1:51 PM 80.1 °F 50.0 °F 35% 29.87 in 10.0 mi NE 5.8 mph - N/A   Clear
2:51 PM 81.0 °F 48.0 °F 31% 29.84 in 10.0 mi ENE 6.9 mph - N/A   Clear
3:51 PM 81.0 °F 45.0 °F 28% 29.81 in 10.0 mi East 5.8 mph - N/A   Clear
4:51 PM 81.0 °F 45.0 °F 28% 29.80 in 10.0 mi ENE 4.6 mph - N/A   Clear
5:51 PM 80.1 °F 46.9 °F 31% 29.79 in 10.0 mi ENE 6.9 mph - N/A   Clear
6:51 PM 79.0 °F 50.0 °F 36% 29.78 in 10.0 mi East 9.2 mph - N/A   Clear
7:51 PM 72.0 °F 53.1 °F 51% 29.79 in 10.0 mi East 5.8 mph - N/A   Clear
8:51 PM 68.0 °F 50.0 °F 52% 29.79 in 10.0 mi ESE 8.1 mph - N/A   Clear
9:51 PM 64.9 °F 51.1 °F 61% 29.81 in 10.0 mi SSE 5.8 mph - N/A   Clear
10:51 PM 64.0 °F 50.0 °F 60% 29.81 in 10.0 mi South 5.8 mph - N/A   Clear
11:51 PM 63.0 °F 48.9 °F 60% 29.80 in 10.0 mi South 8.1 mph - N/A   Clear